Tracking 18840 objects as of 19-November-2017
HD Live streaming from Space Station
objects crossing your sky now

FENGYUN 1C DEB

Track FENGYUN 1C DEB now!
10-day predictions


NORAD ID: 30657
Int'l Code: 1999-025APP
Perigee: 824.8 km
Apogee: 859.3 km
Inclination: 99.0 °
Period: 101.6 minutes
Semi major axis: 7213 km
RCS: 0.026 m2 (small)
Launch date: May 10, 1999
Source: People's Republic of China (PRC)
Launch site: Taiyaun Space Center, China (TSC)

Note: This is SATELLITE DEBRIS
aabbcc
Your satellite tracking list
Your tracking list is empty




NASA's NSSDC Master Catalog

Two Line Element Set (TLE):
1 30657U 99025APP 17322.60302699 +.00001046 +00000-0 +54001-3 0  9990
2 30657 099.0200 345.8878 0023929 175.9014 304.7123 14.17175512553522
Source of the keplerian elements: AFSPC